Torna al catalogo

STARLINK-3685

AttivoComunicazioniVLEO
NORAD 52115·PAYLOAD·🇺🇸 United States

Lanciato Mar 19, 2022 da Cape Canaveral Space Force Station

Loading…

Prossimi Passaggi (prossime 24 ore)

TLE

AggiornatoSource: CelesTrak SupGP

Epoca: Sep 14, 2026, 21:15 UTC

1 52115C 22029AD  26257.88590278  .00017373  00000+0  51334-3 0  2574
2 52115  53.1566 293.8243 0001203  88.9316  65.0129 15.34379890    17

Traccia STARLINK-3685 in tempo reale con AllMySat

Download on the App Store